652  
ASUS43 KMKX 161221  
RWRWI  
 
WISCONSIN REGIONAL WEATHER ROUNDUP  
NATIONAL WEATHER SERVICE MILWAUKEE/SULLIVAN WI  
700 AM CDT TUE JUL 16 2019  
 
NOTE: "FAIR" INDICATES FEW OR NO CLOUDS BELOW 12,000 FEET WITH NO  
SIGNIFICANT WEATHER AND/OR S TO VISIBILITY
.  
 
WIZ001-002-006>008-014>016-023>028-161300-  
NORTHWEST WISCONSIN  
 
CITY SKY/WX TMP DP RH WIND PRES REMARKS
 
SUPERIOR ARPT FAIR 69 67 94 CALM 29.83R  
6HR MIN TEMP: 66; 6HR MAX TEMP: 69;  
 
ASHLAND PTSUNNY 69 67 93 SW12 29.83R  
6HR MIN TEMP: 68; 6HR MAX TEMP: 70;  
 
HAYWARD CLOUDY 67 66 97 CALM 29.87R  
6HR MIN TEMP: 62; 6HR MAX TEMP: 69;  
 
SIREN PTSUNNY 69 67 94 W5 29.87R  
6HR MIN TEMP: 65; 6HR MAX TEMP: 69;  
 
CUMBERLAND FAIR 66 64 94 CALM 29.87R  
RICE LAKE PTSUNNY 67 67 100 CALM 29.88R  
6HR MIN TEMP: 64; 6HR MAX TEMP: 67;  
 
CHETEK PTSUNNY 66 66 100 CALM 29.87R  
6HR MIN TEMP: 64; 6HR MAX TEMP: 66;  
 
LADYSMITH FAIR 66 66 100 CALM 29.88S  
6HR MIN TEMP: 64; 6HR MAX TEMP: 67;  
 
EAU CLAIRE FAIR 67 64 90 SW5 29.86R  
6HR MIN TEMP: 64; 6HR MAX TEMP: 67;  
 
MENOMONIE PTSUNNY 66 63 88 CALM 29.87R  
6HR MIN TEMP: 60; 6HR MAX TEMP: 65; 6HR PCP: 0.06;  
 
NEW RICHMOND FAIR 69 66 91 CALM 29.87R  
6HR MIN TEMP: 67; 6HR MAX TEMP: 69;  
 
OSCEOLA FAIR 69 67 95 CALM 29.88S  
6HR MIN TEMP: 66; 6HR MAX TEMP: 69;  
 

 
 
WIZ003>005-009-010-017-018-161300-  
NORTH CENTRAL WISCONSIN  
 
CITY SKY/WX TMP DP RH WIND PRES REMARKS
 
MANITOWISH WTR CLOUDY 66 66 100 W6 29.86R  
6HR MIN TEMP: 64; 6HR MAX TEMP: 66;  
 
ARBOR VITAE CLOUDY 66 62 87 W7 29.87R  
6HR MIN TEMP: 64; 6HR MAX TEMP: 67;  
 
WOODRUFF CLOUDY 66 62 87 W7 29.87R  
6HR MIN TEMP: 64; 6HR MAX TEMP: 67;  
 
RHINELANDER FAIR 67 63 87 W8 29.88R  
6HR MIN TEMP: 64; 6HR MAX TEMP: 66;  
 
EAGLE RIVER PTSUNNY 66 65 97 W8 29.86R  
6HR MIN TEMP: 63; 6HR MAX TEMP: 66;  
 
LAND O LAKES CLOUDY 67 65 96 W3 29.87R  
6HR MIN TEMP: 64; 6HR MAX TEMP: 66;  
 
PHILLIPS CLOUDY 64 64 100 W5 29.87S  
6HR MIN TEMP: 64; 6HR MAX TEMP: 65;  
 
TOMAHAWK FAIR 64 64 97 CALM 29.88R  
6HR MIN TEMP: 62; 6HR MAX TEMP: 64;  
 
MEDFORD FAIR 64 63 96 SW3 29.88R  
6HR MIN TEMP: 63; 6HR MAX TEMP: 65;  
 
MERRILL FAIR 67 66 96 W3 29.88R  
6HR MIN TEMP: 63; 6HR MAX TEMP: 67; 6HR PCP: 0.03;  
 

 
 
WIZ029-030-035-036-043>047-161300-  
CENTRAL WISCONSIN  
 
CITY SKY/WX TMP DP RH WIND PRES REMARKS
 
WAUSAU FAIR 67 64 90 SW3 29.87R  
6HR MIN TEMP: 65; 6HR MAX TEMP: 69;  
 
MOSINEE MOSUNNY 66 66 100 SW6 29.89R  
MARSHFIELD FAIR 67 65 93 SW3 29.88R  
6HR MIN TEMP: 63; 6HR MAX TEMP: 68; 6HR PCP: TRACE;  
 
STEVENS POINT PTSUNNY 66 66 100 S6 29.90R  
6HR MIN TEMP: 61; 6HR MAX TEMP: 69; 6HR PCP: 0.01;  
 
WAUPACA FAIR 72 70 95 S5 29.90R  
6HR MIN TEMP: 68; 6HR MAX TEMP: 73; 6HR PCP: 0.01;  
 
WAUTOMA FAIR 70 67 90 SW3 29.91R  
6HR MIN TEMP: 68; 6HR MAX TEMP: 75;  
 
WISC RAPIDS FAIR 68 66 93 S5 29.91R  
6HR MIN TEMP: 65; 6HR MAX TEMP: 71; 6HR PCP: 0.01;  
 
CAMP DOUGLAS MOSUNNY 70 66 88 CALM 29.88  

 
 
WIZ011>013-019>022-031-037>040-048>050-161300-  
NORTHEAST WISCONSIN  
 
CITY SKY/WX TMP DP RH WIND PRES REMARKS
 
ANTIGO FAIR 66 65 94 SW6 29.90R  
6HR MIN TEMP: 62; 6HR MAX TEMP: 65;  
 
SHAWANO FAIR 71 68 88 SW6 29.87S  
6HR MIN TEMP: 68; 6HR MAX TEMP: 71;  
 
OCONTO FAIR 71 67 88 SW6 29.86S  
6HR MIN TEMP: 64; 6HR MAX TEMP: 72;  
 
STURGEON BAY FAIR 71 68 90 SW8 29.87S  
6HR MIN TEMP: 67; 6HR MAX TEMP: 73; 6HR PCP: 0.01;  
 
GREEN BAY FAIR 73 69 87 SW6 29.88R  
6HR MIN TEMP: 70; 6HR MAX TEMP: 73; 6HR PCP: 0.02;  
 
MANITOWOC FAIR 74 66 76 SW8 29.90S  
6HR MIN TEMP: 72; 6HR MAX TEMP: 79;  
 
APPLETON MOSUNNY 72 68 88 W7 29.88S  
CLINTONVILLE FAIR 71 66 84 SW7 29.88S  
6HR MIN TEMP: 67; 6HR MAX TEMP: 70;  
 
OSHKOSH FAIR 73 66 78 SW8 29.89S  
6HR MIN TEMP: 70; 6HR MAX TEMP: 75;  
 

 
 
WIZ032>034-041-042-053>061-161300-  
SOUTHWEST WISCONSIN  
 
CITY SKY/WX TMP DP RH WIND PRES REMARKS
 
LA CROSSE FAIR 73 68 84 S9 29.88R  
6HR MIN TEMP: 69; 6HR MAX TEMP: 73; 6HR PCP: 0.02;  
 
SPARTA CLOUDY 62 61 98 CALM 29.90R  
6HR MIN TEMP: 58; 6HR MAX TEMP: 65;  
 
VIROQUA FAIR 70 70 100 SW9 29.92R  
6HR MIN TEMP: 67; 6HR MAX TEMP: 70;  
 
BOSCOBEL FAIR 73 66 78 SW5 29.91R  
6HR MIN TEMP: 71; 6HR MAX TEMP: 78; 6HR PCP: TRACE;  
 
PRAIRIE DU CHI FAIR 72 65 78 CALM 29.91R  
6HR MIN TEMP: 71; 6HR MAX TEMP: 77;  
 
PLATTEVILLE CLOUDY 69 69 100 S3 29.93F  
6HR MIN TEMP: 67; 6HR MAX TEMP: 71;  
 

 
 
WIZ056-057-062-063-064-067-068-161300-  
SOUTH CENTRAL WISCONSIN  
 
CITY SKY/WX TMP DP RH WIND PRES REMARKS
 
REEDSBURG FAIR 71 69 93 SW6 29.91R  
6HR MIN TEMP: 68; 6HR MAX TEMP: 75; 6HR PCP: 0.02;  
 
BARABOO/DELLS FAIR 71 65 81 SW7 29.91S  
6HR MIN TEMP: 69; 6HR MAX TEMP: 75; 6HR PCP: 0.02;  
 
LONE ROCK FAIR 72 67 84 SW5 29.90R  
6HR MIN TEMP: 70; 6HR MAX TEMP: 76; 6HR PCP: TRACE;  
 
MINERAL POINT FAIR 70 70 100 SW7 29.93R  
MADISON FAIR 73 66 78 VRB5 29.91R  
6HR MIN TEMP: 72; 6HR MAX TEMP: 76;  
 
MIDDLETON FAIR 72 66 82 W6 29.92R  
6HR MIN TEMP: 70; 6HR MAX TEMP: 75;  
 
WATERTOWN CLOUDY 71 69 95 SW6 29.91F  
6HR MIN TEMP: 69; 6HR MAX TEMP: 74;  
 
MONROE CLOUDY 70 67 91 SW9 29.93R  
6HR MIN TEMP: 67; 6HR MAX TEMP: 70;  
 
JANESVILLE CLOUDY 72 70 94 N5 29.92R  

 
 
WIZ051-052-058>065-066-070>072-161300-  
SOUTHEAST WISCONSIN  
 
CITY SKY/WX TMP DP RH WIND PRES REMARKS
 
MILWAUKEE PTSUNNY 74 66 76 SW9 29.91R  
6HR MIN TEMP: 72; 6HR MAX TEMP: 77;  
 
WAUKESHA SUNNY 70 64 83 W5 29.93R  
MILWAUKEE/TIMM FAIR 72 61 68 SW7 29.93R  
RACINE PTSUNNY 73 67 81 SW7G17 29.94R  
6HR MIN TEMP: 71; 6HR MAX TEMP: 75;  
 
KENOSHA CLOUDY 75 71 87 SW9 29.92R  
6HR MIN TEMP: 70; 6HR MAX TEMP: 75;  
 
FOND DU LAC FAIR 74 65 73 SW6 29.90F  
6HR MIN TEMP: 72; 6HR MAX TEMP: 79;  
 
SHEBOYGAN FAIR 73 65 75 W10 29.91R  
6HR MIN TEMP: 71; 6HR MAX TEMP: 78;  
 
WEST BEND FAIR 72 66 83 W7 29.92R  
JUNEAU FAIR 70 66 88 SW3 29.92S  
6HR MIN TEMP: 68; 6HR MAX TEMP: 74;  
 

 
 
LSZ147-162-161300-  
LAKE SUPERIOR  
 
STATION/POSITION TIME TEMP WIND PRES WAVE
 
AIR SEA DIR/SP/G HT/PER  
(UTC) (F) (DEG/KT/KT) (MB) (FT/S)  
W MID LAKE BUOY 1150 56 47 250/ 10/ 12 1007.9R 1  

 
 
LMZ867-665-643>646-161300-  
LAKE MICHIGAN  
 
STATION/POSITION TIME TEMP WIND PRES WAVE
 
AIR SEA DIR/SP/G HT/PER  
(UTC) (F) (DEG/KT/KT) (MB) (FT/S)  
CHAMBERS ISLAND 1140 72 200/ 6/ 10 1012.9R  
S GREEN BAY BUOY 1  
 
CLICK HERE TO GO TO PREVIOUS BULLETINS.

The Nexlab WI Page Main Text Page